CW9386 Weather Reports


time (UTC)temp
F
wind
direction
speed
knots
gust
knots
rain 1hr
in
rain 24hr
in
rain mn
in
humidity
%
barometer
mb
20260831042708 83 110 1.7 2.6 0.00 0.00 0.00 26 1016.8
20260831041720 84 130 0.0 1.7 0.00 0.00 0.00 26 1016.7
20260831040711 84 124 1.7 2.6 0.00 0.00 0.00 26 1016.6
20260831035706 85 128 1.7 2.6 0.00 0.00 0.00 26 1016.7
20260831034714 85 128 1.7 2.6 0.00 0.00 0.00 25 1016.4
20260831033709 85 123 1.7 2.6 0.00 0.00 0.00 26 1016.3
20260831032704 86 127 1.7 2.6 0.00 0.00 0.00 26 1016.4
20260831031718 86 132 2.6 5.2 0.00 0.00 0.00 26 1016.1
20260831030708 87 126 2.6 3.5 0.00 0.00 0.00 26 1016.0
20260831025718 87 135 1.7 3.5 0.00 0.00 0.00 25 1015.9
20260831024715 88 148 1.7 3.5 0.00 0.00 0.00 24 1015.6
20260831022707 91 135 1.7 2.6 0.00 0.00 0.00 22 1015.5
20260831021717 92 178 1.7 3.5 0.00 0.00 0.00 21 1015.2
20260831020715 92 175 1.7 3.5 0.00 0.00 0.00 21 1015.2
20260831015707 93 188 2.6 4.3 0.00 0.00 0.00 20 1015.0
20260831013718 94 216 2.6 5.2 0.00 0.00 0.00 19 1014.8
20260831012711 95 200 2.6 6.1 0.00 0.00 0.00 19 1014.8
20260831011704 96 184 3.5 6.1 0.00 0.00 0.00 18 1014.9
20260831005718 98 222 6.1 9.6 0.00 0.00 0.00 17 1014.8
20260831004709 98 228 3.5 4.3 0.00 0.00 0.00 16 1014.8
20260831003705 99 275 2.6 7.0 0.00 0.00 0.00 16 1014.9
20260831002716 99 232 2.6 4.3 0.00 0.00 0.00 16 1014.9
20260831001711 99 306 0.9 6.1 0.00 0.00 0.00 17 1014.8
20260831000707 99 206 0.9 4.3 0.00 0.00 0.00 17 1014.8
20260830235717 98 180 1.7 6.1 0.00 0.00 0.00 17 1014.8
20260830234705 98 129 2.6 11.3 0.00 0.00 0.00 17 1014.9
20260830231712 99 169 5.2 12.2 0.00 0.00 0.00 17 1015.0
20260830224714 100 104 5.2 9.6 0.00 0.00 0.00 17 1015.3
20260830223710 100 169 5.2 9.6 0.00 0.00 0.00 17 1015.4
20260830222703 100 186 7.0 10.4 0.00 0.00 0.00 17 1015.4
20260830221700 99 190 6.1 9.6 0.00 0.00 0.00 17 1015.7
20260830220709 99 106 5.2 8.7 0.00 0.00 0.00 17 1015.8
20260830214702 100 284 4.3 10.4 0.00 0.00 0.00 17 1016.0
20260830210655 101 331 2.6 7.8 0.00 0.00 0.00 17 1016.5
20260830205710 100 157 1.7 6.1 0.00 0.00 0.00 17 1016.7
20260830204704 99 19 1.7 6.1 0.00 0.00 0.00 18 1016.9
20260830203702 98 59 0.9 7.8 0.00 0.00 0.00 18 1017.2
20260830200658 98 282 3.5 7.0 0.00 0.00 0.00 19 1017.7
20260830195711 97 309 3.5 7.0 0.00 0.00 0.00 20 1017.9
20260830194704 97 9 5.2 7.8 0.00 0.00 0.00 20 1018.0
20260830192704 96 221 3.5 7.0 0.00 0.00 0.00 21 1018.2
20260830191701 96 317 2.6 7.0 0.00 0.00 0.00 21 1018.4
20260830190656 95 259 3.5 11.3 0.00 0.00 0.00 21 1018.5
20260830185707 96 244 1.7 7.0 0.00 0.00 0.00 21 1018.7
20260830184659 96 97 3.5 7.8 0.00 0.00 0.00 21 1018.8
20260830183708 96 246 3.5 5.2 0.00 0.00 0.00 21 1019.1
20260830182703 96 282 3.5 5.2 0.00 0.00 0.00 21 1019.4
20260830181700 95 17 2.6 7.0 0.00 0.00 0.00 22 1019.5
20260830180655 94 79 2.6 7.0 0.00 0.00 0.00 22 1019.7
20260830175705 93 18 0.9 5.2 0.00 0.00 0.00 23 1019.8
20260830173653 92 331 1.7 5.2 0.00 0.00 0.00 23 1019.9
20260830171701 92 252 4.3 7.0 0.00 0.00 0.00 23 1020.1
20260830170654 92 207 2.6 4.3 0.00 0.00 0.00 24 1020.2
20260830164703 91 110 0.9 3.5 0.00 0.00 0.00 25 1020.1
20260830162705 89 5 1.7 3.5 0.00 0.00 0.00 26 1020.1
20260830161656 88 329 1.7 4.3 0.00 0.00 0.00 28 1020.1
20260830160703 88 324 3.5 4.3 0.00 0.00 0.00 28 1020.0
20260830155656 86 360 1.7 4.3 0.00 0.00 0.00 30 1020.0
20260830154653 85 348 1.7 5.2 0.00 0.00 0.00 33 1020.0
20260830153645 84 324 3.5 5.2 0.00 0.00 0.00 34 1020.0
20260830152656 83 347 3.5 7.0 0.00 0.00 0.00 36 1020.1
20260830151652 82 350 3.5 7.0 0.00 0.00 0.00 37 1020.1
20260830150651 81 350 3.5 7.8 0.00 0.00 0.00 38 1020.3
20260830145703 80 5 4.3 7.0 0.00 0.00 0.00 40 1020.2
20260830144656 79 9 4.3 8.7 0.00 0.00 0.00 42 1020.2
20260830142701 78 355 5.2 7.8 0.00 0.00 0.00 43 1020.2
20260830140655 77 23 4.3 7.8 0.00 0.00 0.00 44 1020.0
20260830135659 76 5 4.3 7.8 0.00 0.00 0.00 44 1020.1
20260830134653 75 32 3.5 5.2 0.00 0.00 0.00 44 1020.0
20260830133650 75 27 2.6 7.0 0.00 0.00 0.00 44 1020.0
20260830132646 74 23 4.3 7.8 0.00 0.00 0.00 44 1019.9
20260830131642 74 5 2.6 6.1 0.00 0.00 0.00 44 1019.8
20260830125652 74 32 4.3 7.0 0.00 0.00 0.00 40 1019.6
20260830124701 74 22 3.5 4.3 0.00 0.00 0.00 37 1019.5
20260830123659 75 333 0.9 3.5 0.00 0.00 0.00 37 1019.3
20260830122656 75 117 0.9 2.6 0.00 0.00 0.00 37 1019.1
20260830120659 75 146 2.6 3.5 0.00 0.00 0.00 37 1019.0
20260830115652 75 18 2.6 3.5 0.00 0.00 0.00 37 1019.1
20260830114644 75 15 1.7 3.5 0.00 0.00 0.00 37 1019.1
20260830112656 76 16 1.7 3.5 0.00 0.00 0.00 36 1019.1
20260830111649 76 16 0.9 3.5 0.00 0.00 0.00 35 1019.1
20260830110640 77 19 1.7 2.6 0.00 0.00 0.00 34 1019.1
20260830105641 78 17 0.9 2.6 0.00 0.00 0.00 34 1019.1
20260830104639 78 19 1.7 2.6 0.00 0.00 0.00 33 1019.0
20260830103649 79 15 1.7 2.6 0.00 0.00 0.00 32 1019.1
20260830102644 80 76 1.7 2.6 0.00 0.00 0.00 31 1019.2
20260830101651 81 61 1.7 2.6 0.00 0.00 0.00 31 1019.1
20260830100650 81 238 0.0 0.0 0.00 0.00 0.00 30 1019.1
20260830095645 81 240 0.0 2.6 0.00 0.00 0.00 30 1019.2
20260830094640 81 236 1.7 5.2 0.00 0.00 0.00 30 1019.1
20260830093642 82 260 2.6 5.2 0.00 0.00 0.00 30 1019.0
20260830092650 83 9 3.5 7.8 0.00 0.00 0.00 27 1018.9
20260830091644 84 207 0.9 4.3 0.00 0.00 0.00 27 1018.4
20260830090642 84 159 2.6 6.1 0.00 0.00 0.00 27 1018.1
20260830085645 84 125 2.6 6.1 0.00 0.00 0.00 26 1018.1
20260830084643 85 140 3.5 7.8 0.00 0.00 0.00 26 1018.1
20260830082642 85 150 3.5 8.7 0.00 0.00 0.00 25 1018.2
20260830081654 85 126 5.2 8.7 0.00 0.00 0.00 24 1018.4
20260830080650 85 176 4.3 7.8 0.00 0.00 0.00 24 1018.3
20260830075647 86 156 5.2 7.0 0.00 0.00 0.00 24 1018.3
20260830074650 86 138 5.2 9.6 0.00 0.00 0.00 24 1018.4
20260830073642 86 132 3.5 11.3 0.00 0.00 0.00 24 1018.3
20260830072636 86 157 7.8 13.0 0.00 0.00 0.00 24 1018.3
20260830071641 86 109 5.2 10.4 0.00 0.00 0.00 24 1018.6
20260830070650 86 171 5.2 9.6 0.00 0.00 0.00 25 1018.4
20260830064653 84 155 2.6 7.8 0.00 0.00 0.00 27 1018.5
20260830063649 84 80 0.9 6.1 0.00 0.00 0.00 28 1018.3
20260830062645 85 88 0.9 4.3 0.00 0.00 0.00 28 1018.3
20260830060635 85 89 4.3 7.0 0.00 0.00 0.00 28 1018.2
20260830055648 86 69 3.5 6.1 0.00 0.00 0.00 28 1017.4
20260830054647 86 81 1.7 4.3 0.00 0.00 0.00 28 1017.7
20260830053654 86 84 2.6 6.1 0.00 0.00 0.00 28 1017.7
20260830052650 86 86 1.7 4.3 0.00 0.00 0.00 28 1017.8
20260830050637 86 143 1.7 6.1 0.00 0.00 0.00 28 1018.6
20260830045654 87 171 3.5 8.7 0.00 0.00 0.00 28 1018.0
20260830044653 87 165 3.5 6.1 0.00 0.00 0.00 28 1018.0
20260830043648 87 166 3.5 6.1 0.00 0.00 0.00 27 1018.0